• Join FlightAware (Why Join?)
  • Login
  • US Flag 
06:46PM EST


 

Airport Tracker/Info


-or-


 

Live Flight TrackerFlight Track Log ✈ SWA2236 ✈ 16-Jul-2013 ✈ KOAK - KLAS

Flight Track Log - Related Links

Times and Time Zones

All times are in EDT time to prevent confusion due to time zone crossing. See the SWA2236 flight status page for this flight to view local times or setup timezone preferences in your user account.

Time Position Orientation Groundspeed Altitude Reporting Facility
EDT Latitude Longitude Course Direction KTS MPH feet Rate Location/Type
12:19PM 37.7500 -122.2667 107° East 179 206 2,700  Level Northern Cal TRACON
12:20PM 37.7667 -122.3333 288° West 227 261 5,300 2,789 Climbing Northern Cal TRACON
12:21PM 37.7167 -122.3667 208° Southwest 239 275 8,000 3,105 Climbing Northern Cal TRACON
12:22PM 37.6500 -122.4000 202° Southwest 284 327 11,200 2,900 Climbing Northern Cal TRACON
12:23PM 37.5667 -122.4167 189° South 340 391 13,800 2,800 Climbing Northern Cal TRACON
12:24PM 37.5278 -122.3897 151° Southeast 326 375 15,400 2,861 Climbing Oakland Center
12:25PM 37.2352 -122.2242 107° East  Level FlightAware Approximate
12:26PM 37.4544 -122.1286 109° East 391 450 21,000  Level Los Angeles Center
12:27PM 37.4233 -121.9883 106° East 405 466 23,800 2,468 Climbing Los Angeles Center
12:28PM 37.3889 -121.8489 107° East 414 476 26,100 2,129 Climbing Los Angeles Center
12:29PM 37.3533 -121.6811 105° East 436 502 28,200 2,293 Climbing Oakland Center
12:30PM 37.3194 -121.5361 106° East 441 507 30,800 1,548 Climbing Oakland Center
12:32PM 37.2428 -121.2372 108° East 433 498 33,000 706 Climbing Los Angeles Center
12:33PM 37.2086 -121.0942 107° East 431 496 33,000  Level Los Angeles Center
12:34PM 37.1725 -120.9533 108° East 428 493 33,000  Level Los Angeles Center
12:35PM 37.1436 -120.8286 106° East 422 486 33,000  Level Oakland Center
12:37PM 37.0669 -120.5297 108° East 426 490 33,000  Level Los Angeles Center
12:38PM 37.0292 -120.3778 107° East 422 486 33,000  Level Oakland Center
12:40PM 37.0378 -120.0836 88° East 455 524 33,000  Level Oakland Center
12:41PM 37.0697 -119.9308 75° East 455 524 33,000  Level Oakland Center
12:43PM 37.1381 -119.5942 76° East 450 518 33,000  Level Los Angeles Center
12:44PM 37.1750 -119.4108 76° East 452 520 33,000  Level Los Angeles Center
12:45PM 37.2050 -119.2575 76° East 451 519 33,000  Level Los Angeles Center
12:46PM 37.2367 -119.0914 76° East 456 525 33,000  Level Los Angeles Center
12:47PM 37.2667 -118.9397 76° East 450 518 33,000  Level Los Angeles Center
12:48PM 37.2956 -118.7872 77° East 450 518 33,000  Level Los Angeles Center
12:49PM 37.3172 -118.6775 76° East 452 520 33,000  Level Oakland Center
12:50PM 37.3489 -118.5150 76° East 449 517 33,000  Level Oakland Center
12:51PM 37.3775 -118.3642 77° East 445 512 33,000 -61 Level Oakland Center
12:54PM 37.3972 -117.9950 86° East 439 505 32,800 -362 Descending Los Angeles Center
12:55PM 37.4042 -117.8408 87° East 442 509 31,800 -871 Descending Los Angeles Center
12:56PM 37.4125 -117.6867 86° East 444 511 31,000 -387 Descending Los Angeles Center
12:57PM 37.4175 -117.5675 87° East 435 501 31,000  Level Los Angeles Center
12:58PM 37.4278 -117.3600 86° East 429 494 31,000  Level Los Angeles Center
12:59PM 37.3644 -117.2211 120° Southeast 401 461 31,000  Level Los Angeles Center
01:00PM 37.2711 -117.1458 147° Southeast 399 459 31,000  Level Los Angeles Center
01:01PM 37.1800 -117.0675 146° Southeast 398 458 31,000  Level Los Angeles Center
01:02PM 37.0872 -116.9894 146° Southeast 401 461 31,000  Level Los Angeles Center
01:03PM 36.9942 -116.9100 146° Southeast 404 465 31,000  Level Los Angeles Center
01:04PM 36.8828 -116.8164 146° Southeast 402 463 31,000  Level Los Angeles Center
01:05PM 36.7897 -116.7342 145° Southeast 408 470 31,000 -532 Level Los Angeles Center
01:06PM 36.7153 -116.6267 131° Southeast 409 471 29,900 -1,500 Descending Los Angeles Center
01:07PM 36.6442 -116.5222 130° Southeast 399 459 27,900 -1,721 Descending Los Angeles Center
01:09PM 36.5733 -116.4236 132° Southeast 386 444 26,000 -1,839 Descending Los Angeles Center
01:10PM 36.4897 -116.3044 131° Southeast 371 427 23,700 -2,112 Descending Los Angeles Center
01:11PM 36.4125 -116.1950 131° Southeast 364 419 21,600 -1,887 Descending Los Angeles Center
01:12PM 36.3486 -116.1072 132° Southeast 346 398 19,800 -1,790 Descending Los Angeles Center
01:13PM 36.2839 -116.0142 131° Southeast 332 382 17,900 -1,758 Descending Los Angeles Center
01:13PM 36.2461 -115.9644 133° Southeast 327 376 16,900 -1,239 Descending Los Angeles Center
01:14PM 36.1975 -115.8869 128° Southeast 316 364 16,000 -897 Descending Los Angeles Center
01:15PM 36.1794 -115.8314 112° Southeast 318 366 15,600 -806 Descending Los Angeles Center
01:15PM 36.1617 -115.7786 113° Southeast 314 361 15,100 -938 Descending Los Angeles Center
01:16PM 36.1289 -115.6750 111° Southeast 312 359 14,100 -983 Descending Los Angeles Center
01:17PM 36.1003 -115.5911 113° Southeast 306 352 13,200 -569 Descending Los Angeles Center
01:18PM 36.0689 -115.4950 112° Southeast 277 319 13,000 -122 Descending Los Angeles Center
01:19PM 36.0583 -115.4578 109° East 266 306 13,000 -1,167 Level Los Angeles Center
01:19PM 36.0369 -115.3964 113° Southeast 265 305 11,600 -1,267 Descending Los Angeles Center
01:20PM 36.0253 -115.3125 100° East 273 314 11,100 -876 Descending Los Angeles Center
01:21PM 36.0233 -115.2614 93° East 268 308 10,300 -1,375 Descending Los Angeles Center
01:22PM 36.0164 -115.1711 95° East 266 306 8,900 -1,213 Descending Los Angeles Center
01:23PM 36.0136 -115.1197 94° East 250 288 8,400 -871 Descending Los Angeles Center
01:23PM 36.0108 -115.0847 96° East 261 300 8,000 -590 Descending Los Angeles Center
01:24PM 36.0089 -115.0389 93° East 210 242 7,800 -484 Descending Los Angeles Center
01:24PM 36.0097 -115.0161 87° East 227 261 7,500 -1,377 Descending Los Angeles Center
01:25PM 36.0300 -114.9867 50° Northeast 192 221 6,400 -2,032 Descending Los Angeles Center
01:25PM 36.0572 -114.9761 17° North 194 223 5,400 -1,727 Descending Los Angeles Center
01:26PM 36.0758 -114.9981 316° Northwest 173 199 4,500 -1,518 Descending Los Angeles Center
01:26PM 36.0728 -115.0442 265° West 160 184 3,300 -1,133 Descending Los Angeles Center
01:27PM 36.0731 -115.0739 271° West 164 189 2,800 -757 Descending Los Angeles Center
01:28PM 36.0739 -115.1250 271° West 155 178 2,000 -774 Descending Los Angeles Center
01:30PM 36.0667 -115.1500 270° West  Level FlightAware Approximate